Weather Roundup
Issued by NWS

Home | Current Version | Previous Version | Text Only | Print | Product List | Glossary On
Versions: 1 2 3 4 5 6 7 8 9 10 11 12 13 14 15 16 17 18 19 20 21 22 23 24 25 26 27 28 29 30 31 32 33 34 35 36 37 38 39 40 41 42 43 44 45 46 47 48 49 50
478
NZUS93 KARX 121310
HRRWXR

CURRENT HOURLY OBSERVATIONS ACROSS
MUCH OF THE UPPER MISSISSIPPI VALLEY
NATIONAL WEATHER SERVICE LA CROSSE WI
800 AM CDT MON APR 12 2021


...SOUTHEAST MINNESOTA...


CITY           SKY/WX    TMP DP  RH WIND       PRES   REMARKS
ROCHESTER      CLOUDY    43  41  93 W14       29.69R
ROCHESTER/MAYO CLOUDY    45  44  95 W7        29.69R
WINONA         CLOUDY    45  41  87 NW7       29.69R
AUSTIN         CLOUDY    43  37  81 W17G25    29.73R
ALBERT LEA     CLOUDY    41  37  87 W7G16     29.74R
DODGE CENTER   DRIZZLE   43  39  87 W15       29.70R
PRESTON        CLOUDY    43  40  89 W16       29.71R
OWATONNA       CLOUDY    43  39  87 W13       29.71R
FARIBAULT      DRIZZLE   43  41  93 W8G18     29.70R
$$

...ELSEWHERE IN MINNESOTA...


CITY           SKY/WX    TMP DP  RH WIND       PRES   REMARKS
MINNEAPOLIS    CLOUDY    47  41  80 W7        29.66R
INTNL FALLS    LGT SNOW  35  33  92 NE6       29.63R FOG     WCI  30
DULUTH         LGT RAIN  41  39  93 NW3       29.58R
RED WING       CLOUDY    46  41  81 W9        29.65S
REDWOOD FALLS  CLOUDY    39  34  82 W22G32    29.74R WCI  29
MANKATO        CLOUDY    40  36  86 W20G26    29.73R WCI  30
WORTHINGTON    CLOUDY    37  30  75 W20       29.82R WCI  27
FAIRMONT       CLOUDY    40  31  70 W23G31    29.79R WCI  30
$$

...SOUTHWEST WISCONSIN...


CITY           SKY/WX    TMP DP  RH WIND       PRES   REMARKS
LA CROSSE      MOSUNNY   49  40  71 SW6       29.68R
PRAIRIE DU CHI CLOUDY    44  38  80 W6        29.75R
BOSCOBEL       SUNNY     48  41  76 SW9       29.72R
LONE ROCK      MOSUNNY   48  44  86 W9        29.69R
PLATTEVILLE    SUNNY     45  44  99 W13       29.73S
FORT MC COY      N/A     46  43  88 W12       29.67R
CAMP DOUGLAS   PTSUNNY   48  48 100 SW6       29.65S
MAUSTON-NEW LI MOSUNNY   48  45  90 W9        29.66R FOG
VIROQUA        SUNNY     44  43  97 W8        29.68R
WIS DELLS      PTSUNNY   47  43  88 W7        29.67S
$$

...ELSEWHERE IN WISCONSIN...


CITY           SKY/WX    TMP DP  RH WIND       PRES   REMARKS
MILWAUKEE      CLOUDY    51  48  89 W5        29.68R
MADISON        MOSUNNY   50  44  80 NW6       29.68R
GREEN BAY      CLOUDY    51  47  86 SW6       29.64R
EAU CLAIRE     RAIN      47  45  93 SW9       29.62R FOG
BLACK RVR FLS  PTSUNNY   49  46  88 SW6       29.65R
MEDFORD        RAIN      42  42 100 CALM      29.61R VSB 1
WAUSAU         LGT RAIN  47  43  86 S5        29.61R FOG
WIS RAPIDS     CLOUDY    47  46  97 W7        29.65R
MARSHFIELD     CLOUDY    46  44  93 W8        29.62S FOG
RICE LAKE      DRIZZLE   44  44  97 W7        29.63R
$$

...NORTHEAST IOWA...


CITY           SKY/WX    TMP DP  RH WIND       PRES   REMARKS
WATERLOO       CLOUDY    45  38  76 W15G25    29.78R
DUBUQUE        SUNNY     43  39  86 W13       29.75R
DECORAH        CLOUDY    43  43 100 W7G13     29.71R
MASON CITY     CLOUDY    42  34  73 W21G31    29.77R
CHARLES CITY   CLOUDY    43  41  93 W14G21    29.76R
OELWEIN        CLOUDY    43  39  87 W15       29.76R
$$

...ELSEWHERE IN IOWA...


CITY           SKY/WX    TMP DP  RH WIND       PRES   REMARKS
DES MOINES     MOSUNNY   43  34  70 NW20      29.88R
IOWA CITY      SUNNY     45  36  70 W13       29.82R
FORT DODGE     MOSUNNY   40  33  76 W18G24    29.86R WCI  31
MARSHALLTOWN   SUNNY     42  35  76 NW24G36   29.82R
CEDAR RAPIDS   SUNNY     43  37  79 W16       29.79R
$$

...NORTHERN ILLINOIS...


CITY           SKY/WX    TMP DP  RH WIND       PRES   REMARKS
CHICAGO-OHARE  PTSUNNY   52  46  80 W7        29.70R
CHICAGO-MIDWAY CLOUDY    52  46  80 W9        29.70R
MOLINE         SUNNY     47  40  76 W12       29.79R
ROCKFORD       SUNNY     52  44  74 W7        29.73R
PEORIA         SUNNY     48  41  76 W7        29.80R
$$

NOTE: "FAIR" INDICATES FEW OR NO CLOUDS BELOW 12,000 FEET WITH NO
SIGNIFICANT WEATHER AND/OR OBSTRUCTIONS TO VISIBILITY. WIND
SPEEDS ARE IN MILES-PER-HOUR.




USA.gov is the U.S. government's official web portal to all federal, state and local government web resources and services.